Wind_Speed
41 39 36 37 35 27 22 19 12 4 4 14 11 29 29 27 30 29 30 30 29 29 31 31 29 28 26 24 27 28 26 26 27 25 21 19 14 12
42 37 38 36 38 37 33 23 22 19 4 11 19 16 20 20 18 23 27 27 27 28 29 32 33 33 31 31 27 26 28 30 28 30 26 22 19 14
36 41 39 37 35 34 32 30 28 25 12 12 19 20 19 21 20 22 21 22 22 23 23 26 32 33 34 35 33 30 29 28 29 31 30 26 22 18
34 34 37 35 35 35 32 32 33 32 24 17 20 18 22 24 24 24 24 23 24 23 21 22 22 25 28 32 33 32 32 34 31 32 33 32 25 21
33 35 36 37 34 37 37 35 33 33 31 23 23 24 24 23 28 29 27 27 27 25 22 24 26 26 25 25 29 32 33 34 33 30 33 33 28 23
41 41 39 38 38 40 39 39 36 33 31 29 22 22 24 27 26 31 33 32 30 26 24 25 25 25 25 25 26 27 30 32 31 29 26 33 30 26
39 40 41 41 44 42 41 39 36 33 27 25 21 17 20 19 25 28 32 32 31 29 27 26 25 26 27 26 25 26 25 27 28 28 27 28 29 29
35 38 38 43 44 41 40 39 41 36 29 25 24 19 26 25 29 28 27 21 10 29 26 28 26 28 26 24 24 23 22 24 26 27 28 29 31 30
36 36 37 40 39 37 35 35 37 36 34 35 27 26 23 30 28 28 28 23 22 18 15 22 21 20 21 22 22 20 20 21 24 26 27 29 29 26
37 39 39 38 37 35 33 34 35 34 31 32 30 31 30 25 24 25 27 27 24 22 20 12 17 18 18 19 20 18 18 18 20 22 24 27 28 23
34 35 35 36 34 34 34 33 34 34 30 31 31 31 28 24 22 20 22 20 11 15 22 15 12 14 16 19 19 20 21 18 17 18 22 25 23 21
33 33 33 32 32 31 34 33 29 32 35 32 31 30 28 25 22 23 25 21 13 9 18 18 16 9 4 9 14 19 19 18 19 19 20 21 20 21
28 29 29 27 27 28 31 34 33 32 31 30 31 30 29 27 26 24 23 22 24 16 9 21 13 11 9 4 5 9 14 17 18 20 19 19 22 24
29 31 32 30 29 29 29 29 28 27 25 25 25 24 26 27 25 23 22 22 23 22 16 16 9 15 12 6 6 8 11 13 16 19 21 21 20 22
32 31 30 28 28 28 28 27 26 25 25 24 25 25 25 24 25 24 21 20 18 17 16 19 20 15 14 9 4 9 6 10 14 18 20 21 22 22
24 23 22 24 28 29 27 25 28 27 26 26 25 22 19 20 21 20 18 16 14 11 12 14 15 15 15 15 13 10 11 7 11 16 17 19 20 21
21 20 22 24 22 23 23 23 24 25 25 24 23 23 21 21 19 18 15 16 10 10 11 10 10 12 13 13 13 14 13 14 11 12 16 18 19 18
27 21 19 17 20 18 20 17 15 16 17 19 20 20 21 21 20 16 15 14 11 10 11 10 10 8 6 8 13 11 13 14 13 13 14 16 20 18
30 24 21 20 20 20 19 18 17 15 15 14 15 15 15 15 16 14 13 12 9 9 9 10 11 7 3 2 2 10 14 14 14 15 17 18 19 13
29 25 23 23 22 21 20 19 17 17 17 15 14 13 13 13 11 11 11 11 10 9 8 8 9 11 8 3 2 4 8 14 13 15 18 18 19 18
26 27 27 27 26 25 22 21 19 18 16 16 14 11 10 10 9 8 6 5 5 6 7 8 6 7 9 9 5 5 8 9 13 15 12 14 13 10
26 24 25 25 24 23 23 23 22 19 16 15 13 11 9 8 7 6 4 4 5 4 5 5 4 7 8 9 11 8 7 8 10 12 13 14 8 4
24 23 23 21 20 19 18 17 17 16 15 14 13 10 7 6 4 3 2 2 2 4 7 7 6 8 9 9 9 11 9 9 9 11 14 13 15 17
Wind_Direction
209 213 217 219 218 218 206 197 169 174 205 200 197 218 228 235 234 229 231 238 240 239 242 243 246 247 248 249 245 238 238 239 235 241 237 239 250 276
208 210 218 223 223 223 227 223 220 205 192 189 201 208 217 223 226 228 232 238 241 246 249 248 247 248 250 252 252 249 245 247 245 241 237 234 236 240
204 207 217 220 219 218 219 216 216 213 199 200 211 214 222 221 222 225 229 234 235 240 244 245 246 247 254 252 254 252 253 251 247 244 239 231 227 230
205 203 211 213 213 214 213 213 214 218 215 205 213 207 215 223 225 228 230 235 238 242 249 254 253 251 252 253 255 257 260 256 257 248 248 237 222 230
201 203 207 210 208 212 212 216 213 219 222 221 224 230 228 222 222 226 230 236 236 243 252 255 255 253 256 258 250 255 258 261 263 257 250 241 226 236
210 213 211 211 214 213 212 217 218 218 220 224 227 221 225 232 233 229 229 232 237 241 258 256 255 256 258 259 259 259 250 255 258 255 260 245 236 246
206 209 212 218 221 219 214 214 218 217 216 215 220 217 221 222 227 231 233 237 239 241 249 253 256 257 257 258 262 263 254 247 252 251 253 244 244 245
200 210 214 220 225 225 228 228 230 218 210 210 220 223 229 224 231 232 234 227 236 240 240 257 252 254 258 261 265 264 260 246 245 246 246 244 240 241
201 201 205 217 225 226 227 231 235 235 233 226 217 220 228 234 238 239 236 227 230 227 233 246 254 254 256 259 259 255 250 248 246 244 244 242 241 239
202 203 206 214 220 222 222 222 226 228 228 231 238 242 243 247 248 249 251 241 232 235 233 222 245 249 254 255 257 257 254 249 247 244 242 238 236 239
205 207 208 212 215 215 218 215 219 228 234 238 241 244 247 247 245 235 224 209 211 220 219 217 239 242 253 253 252 252 252 249 241 243 238 236 236 240
204 213 217 219 219 222 220 219 213 224 230 230 232 239 241 244 235 224 227 208 201 205 220 201 227 224 247 255 251 248 244 239 238 236 237 237 239 227
196 203 210 216 222 223 223 225 226 234 234 236 240 237 237 231 227 229 225 227 217 217 218 195 214 211 210 238 264 251 241 238 234 233 236 233 225 224
199 213 220 218 224 226 224 227 230 233 231 229 229 227 226 226 217 213 216 221 226 236 240 218 219 214 204 207 236 246 236 232 229 226 214 213 216 228
211 217 224 220 218 220 220 220 218 218 217 213 216 219 219 218 212 210 215 219 226 229 227 221 227 227 223 215 203 224 222 235 227 223 220 221 227 227
215 215 218 213 209 211 210 213 212 213 211 209 207 202 199 193 195 200 197 199 205 202 210 217 223 226 225 227 231 231 225 208 220 224 226 228 229 233
164 163 175 176 176 185 189 190 197 199 201 202 196 188 185 187 187 191 194 184 186 190 193 199 208 215 220 226 227 234 233 228 234 224 225 234 239 240
95 81 81 100 114 129 138 140 160 173 182 186 183 182 178 176 173 175 181 184 182 184 189 196 194 190 206 236 233 237 235 239 234 226 233 241 251 245
64 60 61 65 83 106 111 115 113 122 136 147 153 159 164 167 170 168 170 175 169 181 190 195 199 196 154 218 267 236 235 237 236 231 235 239 251 261
49 50 50 56 64 80 96 101 102 106 110 118 122 130 146 153 156 169 173 168 173 180 188 203 214 218 206 201 223 258 246 242 241 245 245 253 262 268
40 45 50 55 60 67 77 89 93 93 98 103 105 113 123 140 148 153 155 167 183 198 210 228 251 244 239 244 246 246 257 249 247 248 255 251 258 268
39 42 49 57 61 67 73 78 80 82 84 89 93 100 107 114 118 124 142 171 210 239 265 277 258 231 231 236 252 250 264 259 245 246 250 245 242 244
43 45 48 49 52 58 63 69 74 74 73 71 70 69 71 77 95 119 155 206 243 256 257 248 235 229 240 250 254 256 245 244 247 250 254 257 263 266
Height
805 810 817 821 826 829 831 833 837 847 846 846 847 850 855 856 858 861 864 867 868 870 872 873 875 877 878 880 881 882 884 885 886 887 888 889 888 889
798 803 810 814 819 823 825 828 832 836 841 840 843 845 849 850 853 855 858 861 863 864 866 867 869 871 872 874 875 877 878 879 880 881 882 883 884 885
790 793 802 808 812 817 820 823 827 830 833 837 839 841 844 846 849 851 853 854 856 858 859 859 862 864 866 867 868 870 872 873 874 874 876 876 878 880
785 787 794 801 805 810 814 816 820 824 828 831 834 837 839 841 844 846 847 849 850 852 853 854 855 857 858 859 861 863 865 866 867 867 869 871 870 873
775 781 786 793 797 803 806 810 814 818 822 825 827 832 835 837 838 840 842 843 844 846 847 848 849 850 851 851 853 855 857 859 860 861 862 863 865 867
768 775 778 783 789 793 798 803 807 812 816 820 822 826 829 831 833 834 834 836 838 840 841 842 844 844 844 845 846 847 849 851 853 855 856 857 859 862
759 765 770 774 782 787 790 794 800 804 808 813 816 819 822 824 824 825 827 829 831 833 834 835 836 837 838 839 839 840 840 844 846 847 849 851 853 855
750 756 762 769 776 779 783 786 790 795 800 805 808 812 812 814 816 819 821 824 826 825 827 827 829 829 831 832 833 834 835 836 839 840 843 845 847 849
742 748 754 760 767 771 776 779 783 788 791 794 798 802 804 804 808 811 814 815 816 819 820 821 822 823 825 826 826 827 828 830 832 834 836 839 841 843
734 739 744 749 756 762 767 773 777 781 784 788 792 794 797 800 802 805 807 809 811 813 815 816 817 818 818 820 821 821 823 825 826 828 831 833 835 839
728 732 737 741 748 756 761 764 769 773 778 782 785 789 792 795 797 799 802 805 806 806 809 811 812 812 813 814 815 816 817 819 821 823 826 828 831 834
720 726 733 736 743 750 755 759 762 766 770 775 778 781 785 787 791 793 795 797 799 803 803 806 807 810 810 808 809 810 812 814 816 819 821 824 826 828
713 720 727 733 738 743 749 751 754 760 764 767 770 773 777 780 783 787 789 791 793 795 796 799 801 803 806 806 806 806 808 810 812 814 817 819 821 823
707 714 720 727 732 737 742 745 749 753 757 760 763 766 769 773 777 781 783 786 788 790 793 795 796 798 800 802 804 804 804 806 808 810 812 814 817 818
703 707 714 721 727 732 735 740 744 747 750 753 756 760 763 767 771 775 778 780 783 786 788 790 792 793 796 798 799 800 801 803 804 806 808 810 812 813
701 705 711 717 722 726 730 734 737 740 744 747 751 755 759 762 766 769 774 776 780 783 784 786 788 790 792 795 796 797 798 800 800 801 804 806 808 809
698 703 708 711 717 721 725 728 732 736 740 743 747 750 755 759 762 766 769 773 776 779 781 783 785 787 789 791 793 794 795 796 797 799 801 802 803 805
701 707 711 713 715 720 723 727 731 733 736 740 744 748 751 755 759 764 767 770 773 776 779 782 784 787 788 790 791 791 793 794 795 796 798 799 799 801
710 715 719 720 721 724 727 730 733 735 737 742 745 749 753 757 760 762 765 769 772 775 778 780 783 785 787 788 789 788 789 791 792 794 795 796 796 797
725 727 727 728 730 730 732 734 737 739 740 744 747 751 754 757 761 764 767 768 771 774 777 779 780 782 784 786 785 786 786 788 790 791 793 793 793 794
740 738 738 738 737 738 739 740 742 744 746 748 751 754 757 759 763 765 767 768 771 774 775 776 778 780 781 783 784 783 785 786 787 789 790 790 790 789
749 749 748 747 746 747 745 746 748 750 752 753 754 757 759 761 762 764 766 769 771 773 774 776 776 778 779 780 781 782 783 784 785 786 786 787 787 785
757 757 754 754 754 754 753 753 753 754 756 757 757 759 761 762 764 765 767 768 770 772 773 774 775 776 777 777 778 778 779 780 781 781 781 781 781 781